Tracking 33199 objects as of 16-Feb-2026
HD Live streaming from Space Station
objects crossing your sky now

STARLINK-33576

Track STARLINK-33576 now!
10-day predictions
STARLINK-33576 is classified as:


NORAD ID: 62775
Int'l Code: 2025-015T
Perigee: 481.6 km
Apogee: 483.1 km
Inclination: 53.2 °
Period: 94.1 minutes
Semi major axis: 6853 km
RCS: Unknown
Launch date: January 21, 2025
Source: United States (US)
Launch site: AIR FORCE WESTERN TEST RANGE (AFWTR)
Your satellite tracking list
Your tracking list is empty




NASA's NSSDC Master Catalog

Two Line Element Set (TLE):
1 62775U 25015T   26046.44234321  .00018459  00000-0  63374-3 0  9994
2 62775  53.1597  65.8883 0001087  94.2337 265.8788 15.30203776 61017
Source of the keplerian elements: AFSPC